TimeMDT,TemperatureF,Dew PointF,Humidity,Sea Level PressureIn,VisibilityMPH,Wind Direction,Wind SpeedMPH,Gust SpeedMPH,PrecipitationIn,Events,Conditions,WindDirDegrees,DateUTC
12:56 AM,48.9,46.9,93,29.54,-9999.0,NW,12.7,-,N/A,,Unknown,320,2013-09-26 06:56:00
1:56 AM,48.9,46.9,93,29.53,-9999.0,NW,16.1,-,N/A,,Unknown,320,2013-09-26 07:56:00
2:56 AM,48.0,46.0,93,29.53,-9999.0,NW,15.0,-,N/A,,Unknown,310,2013-09-26 08:56:00
3:56 AM,48.9,46.0,90,29.54,-9999.0,NW,13.8,-,N/A,,Unknown,310,2013-09-26 09:56:00
4:56 AM,48.9,46.9,93,29.57,-9999.0,WNW,15.0,-,N/A,,Unknown,300,2013-09-26 10:56:00
5:56 AM,48.9,46.9,93,29.60,-9999.0,WNW,11.5,-,N/A,,Unknown,300,2013-09-26 11:56:00
6:56 AM,50.0,46.0,86,29.63,-9999.0,WNW,12.7,-,N/A,,Unknown,300,2013-09-26 12:56:00
7:56 AM,50.0,46.0,86,29.66,-9999.0,WNW,12.7,-,N/A,,Unknown,300,2013-09-26 13:56:00
8:56 AM,53.1,46.0,77,29.67,-9999.0,WNW,19.6,26.5,N/A,,Unknown,290,2013-09-26 14:56:00
9:56 AM,53.1,43.0,69,29.70,-9999.0,WNW,23.0,28.8,N/A,,Unknown,300,2013-09-26 15:56:00
10:56 AM,55.0,44.1,67,29.72,-9999.0,West,23.0,28.8,N/A,,Unknown,280,2013-09-26 16:56:00
11:56 AM,55.0,43.0,64,29.73,-9999.0,WNW,24.2,-,N/A,,Unknown,290,2013-09-26 17:56:00
12:56 PM,55.0,42.1,62,29.75,-9999.0,West,24.2,35.7,N/A,,Unknown,280,2013-09-26 18:56:00
1:56 PM,57.0,39.9,53,29.74,-9999.0,WNW,29.9,35.7,N/A,,Unknown,290,2013-09-26 19:56:00
2:56 PM,57.0,39.9,53,29.75,-9999.0,WNW,26.5,33.4,N/A,,Unknown,290,2013-09-26 20:56:00
3:56 PM,55.9,37.9,51,29.77,-9999.0,WNW,25.3,32.2,N/A,,Unknown,300,2013-09-26 21:56:00
4:56 PM,55.9,37.9,51,29.78,-9999.0,WNW,19.6,28.8,N/A,,Unknown,300,2013-09-26 22:56:00
5:56 PM,51.1,37.9,61,29.82,-9999.0,NNW,18.4,-,N/A,,Unknown,330,2013-09-26 23:56:00
6:56 PM,48.9,37.9,66,29.85,-9999.0,NNW,13.8,-,N/A,,Unknown,330,2013-09-27 00:56:00
7:56 PM,48.0,37.9,68,29.86,-9999.0,NNW,13.8,-,N/A,,Unknown,330,2013-09-27 01:56:00
8:56 PM,48.0,37.9,68,29.90,-9999.0,NNW,13.8,-,N/A,,Unknown,330,2013-09-27 02:56:00
9:56 PM,46.9,37.0,68,29.90,-9999.0,NW,13.8,-,N/A,,Unknown,320,2013-09-27 03:56:00
10:56 PM,46.9,37.9,71,29.88,-9999.0,NNW,16.1,-,N/A,,Unknown,330,2013-09-27 04:56:00
11:56 PM,46.0,39.0,76,29.86,-9999.0,NNW,16.1,-,N/A,,Unknown,340,2013-09-27 05:56:00